INMARSAT 4-F2 (SOUTHPA*)

Last updated on Thu Aug 20 2026 00:03:25 GMT+0000 (Coordinated Universal Time)

1 28899U 05044A 26231.59019111 -.00000264 00000+0 00000+0 0 9991 2 28899 5.1775 43.7209 0002476 91.3035 188.8826 1.00272824 76154
UTC large
Height (km)
Speed (km/s)
/
Latitude / Longitude
Inclination (degrees)
Orbital Period (minutes)
Azimuth
Elevation
Range (km)
Doppler Factor

Next 0 passes for location: London (51.5072 / 0.1276)

No passes found over London.
INMARSAT 4-F2 (SOUTHPA*)